Location: Tr�vern
(48.0333°N, 4.6000°W)
Time: 18:01:57
(UTC+00:00)

ALOS 2 - Pass Details

Date: 14 July 2020
Orbit: 630 x 632 km, 97.9° (Epoch: 13 August)

Event Time Altitude Azimuth Distance (km) Brightness Sun altitude
Exits shadow 00:45:11 21° 251° (WSW) 1,428 4.2 -20.2°
Maximum altitude 00:46:00 22° 267° (W) 1,387 4.2 -20.2°
Drops below altitude 10° 00:49:26 10° 319° (NW) 2,023 5.8 -20.1°
Sets 00:52:05 0° 335° (NNW) 2,937 7.0 -20.1°
